Regional Weather Roundup
Issued by NWS Goodland, KS

Home | Current Version | Previous Version | Graphics & Text | Print | Product List | Glossary On
Versions: 1 2 3 4 5 6 7 8 9 10 11 12 13 14 15 16 17 18 19 20 21 22 23 24 25 26 27 28 29 30 31 32 33 34 35 36 37 38 39 40 41 42 43 44 45 46 47 48 49 50
000
ASUS43 KGLD 301408
RWRGLD

GOODLAND FORECAST AREA HOURLY WEATHER ROUNDUP
NATIONAL WEATHER SERVICE GOODLAND KS
800 AM MDT SAT APR 30 2016

...OFFICIAL OBSERVATIONS...

CITY           SKY/WX    TMP DP  RH WIND       PRES   REMARKS
GOODLAND KS    FOG       33  32  96 NW15      29.80R VSB 1/2
HILL CITY KS   CLOUDY    42  39  89 NW17      29.76R
IMPERIAL NEB   CLOUDY    34  32  92 N15       29.82S
MCCOOK NEB     CLOUDY    37  35  92 N13       29.79R
AKRON CO       LGT SNOW  31  30  96 N21       29.85R VSB 1   WCI  18
BURLINGTON CO  CLOUDY    33  30  88 N16       29.82R FOG
LIMON CO       LGT SNOW  30  28  92 NW22      29.84S FOG     WCI  17
$$

...UNOFFICIAL OBSERVATIONS...

CITY           SKY/WX    TMP DP  RH WIND       PRES   REMARKS
COLBY KS       CLOUDY    36  36 100 NW13      29.80S
GOVE KS          N/A     39  32  76 MISG        N/A
LENORA KS        N/A     38  32  79 MISG        N/A
NORTON KS      CLOUDY    37  36  93 NW18      29.75S FOG
SHARON SPRINGS   N/A     34  33  96 N15         N/A
KIT CARSON CO    N/A     33  31  94 MISG        N/A
YUMA CO          N/A     34  32  93 N12         N/A
$$



USA.gov is the U.S. government's official web portal to all federal, state and local government web resources and services.